Historyczne dane pomiarowe

Dodano dane terminowe – wersja testowa.

Dane z okresu 1951-2019

Wersja bazy: 1.34 [2019-03-16, lista zmian], aktualizacja planowana na 2019-04-15

Dane meteo z obszaru Polski uzyskane na podstawie danych udostępnionych przez Instytut Meteorologii i Gospodarki Wodnej – Państwowy Instytut Badawczy.

 

Wybierz Datę:    

       

TemperaturaWilgotnośćWiatrCiśnienieOpadyŚniegCzas trwania zjawisk
 Stacja t tx tn tng RH VA  wxwx mslp ppp RRR   cm mm wxwxwxwxwxwxwx
2019-08-31 22.6 29.3 15.2 14.1 70.6 18.6- 1.4--1020.1 995.7 0.0 0.0 0.0x- 11.4-------
2019-08-30 22.4 29.7 16.6 15.5 71.9 18.9- 1.1--1021.4 997.0 0.0 0.0 0.0x- 10.4-------
2019-08-29 23.9 33.2 16.5 15.3 68.9 18.9- 0.6--1018.4 994.2 0.0 0.0 0.0x- 9.8-------
2019-08-28 23.1 32.3 16.4 15.2 70.5 19.0- 0.9--1019.7 995.4 0.1 0.1 0.0x- 8.7-------
2019-08-27 24.0 31.3 16.1 14.9 68.1 19.4- 1.3--1020.8 996.6 0.0 0.0 0.0x- 11.8-------
2019-08-26 23.3 31.5 16.2 14.8 71.4 19.5- 1.6--1021.4 997.1 0.0 0.0 0.0x- 12.0-------
2019-08-25 21.5 29.0 13.9 12.8 71.9 18.2- 1.1--1022.5 998.0 0.0 0.0 0.0x- 12.1-------
2019-08-24 20.3 26.7 14.3 13.0 70.3 16.1- 1.8--1024.61000.0 0.0 0.0 0.0x- 11.8-------
2019-08-23 19.1 25.6 13.0 11.7 75.4 16.2- 1.5--1026.71001.9 0.0 0.0 0.0x- 12.2-------
2019-08-22 17.3 22.6 14.1 13.4 78.0 15.1- 1.5--1028.41003.4 0.0 0.0 0.0x- 5.1-------
2019-08-21 18.1 21.8 17.3 16.6 88.3 18.4- 1.5--1024.0 999.1 0.0 0.0 0.0x- 0.4-------
2019-08-20 21.9 28.2 16.9 16.2 82.6 21.3- 1.3--1020.4 996.0 0.6 0.5 0.1x- 7.9-------
2019-08-19 24.3 31.9 17.9 15.8 66.1 19.2- 1.1--1015.2 991.1 0.1 0.1 0.0x- 11.3-------
2019-08-18 21.8 28.7 13.5 12.5 67.4 17.0- 1.3--1013.1 988.9 0.0 0.0 0.0x- 9.5-------
2019-08-17 19.2 25.3 13.4 12.8 72.6 15.6- 0.8--1016.2 991.6 0.0 0.0 0.0x- 9.8-------
2019-08-16 17.5 23.9 9.9 9.0 69.9 13.5- 0.6--1016.1 991.4 0.1 0.1 0.0x- 7.3-------
2019-08-15 15.3 23.2 8.0 7.7 74.3 12.2- 0.8--1017.1 992.2 0.0 0.0 0.0x- 11.1-------
2019-08-14 15.0 19.5 13.7 13.0 95.3 16.3- 1.1--1016.0 991.2 9.8 9.8 0.0x- 0.8-------
2019-08-13 19.2 26.6 17.6 17.7 89.4 19.8- 1.1--1015.4 990.9 8.8 0.4 8.4x- 1.5-------
2019-08-12 25.1 32.6 17.7 16.7 69.6 21.4- 1.0--1013.1 989.1 8.3 0.0 8.3x- 9.7-------
2019-08-11 22.2 27.5 18.5 17.6 73.9 19.1- 1.3--1017.8 993.5 0.0 0.0 0.0x- 10.2-------
2019-08-10 23.4 31.8 13.5 12.9 65.0 17.9- 1.1--1014.0 989.9 15.3 0.0 15.3x- 8.6-------
2019-08-09 20.8 28.0 13.6 12.8 66.3 15.1- 1.0--1013.9 989.6 0.0 0.0 0.0x- 11.8-------
2019-08-08 20.3 25.7 18.1 17.8 76.5 17.7- 1.3--1011.0 986.7 0.0 0.0 0.0x- 7.7-------
2019-08-07 22.1 29.7 17.0 15.7 76.6 20.0- 1.5--1009.0 984.9 11.7 2.2 9.5x- 7.3-------
2019-08-06 22.3--- 63.9 16.5- 1.4--1011.8 987.6 0.0 0.0 0.0x- 10.9-------
2019-08-05 20.3 25.6 13.9- 65.4 15.0- 1.0--1013.3 989.0 0.0 0.0 0.0x- 9.0-------
2019-08-04 16.9 23.5 10.9 10.5 76.1 14.3- 1.3--1013.9 989.2 3.0 3.0 0.0x- 9.2-------
2019-08-03 17.5 24.5 13.1 12.5 74.8 14.5- 1.1--1011.1 986.5 0.6 0.0 0.6x- 6.4-------
2019-08-02 19.6 24.8 14.5 13.8 71.3 15.8- 1.4--1013.1 988.7 0.0 0.0 0.0x- 10.1-------
2019-08-01 20.0 25.6 17.6 17.0 82.1 18.8- 1.1--1014.6 990.2 0.9 0.7 0.2x- 5.5-------
2019-07-31 21.4 26.7 19.6 19.1 87.1 22.1- 0.9--1012.1 987.8 19.8 19.8 0.0x- 2.6-------
2019-07-30 23.4 30.0 18.7 18.3 78.3 21.9- 1.4--1007.5 983.6 3.3 3.3 0.0x- 10.6-------
2019-07-29 22.7 32.7 18.3 17.9 78.0 20.7- 1.0--1005.4 981.4 3.1 3.1 0.0x- 10.2-------
2019-07-28 24.9 32.5 17.8 16.4 62.8 18.8- 2.1--1004.0 980.2 2.6 0.0 2.6x- 10.9-------
2019-07-27 21.8 27.4 15.9 15.0 72.8 18.5- 1.5--1006.8 982.7 0.0 0.0 0.0x- 9.6-------
2019-07-26 22.0 29.0 15.5 15.0 67.8 17.2- 1.5--1011.3 987.1 0.0 0.0 0.0x- 8.7-------
2019-07-25 21.5 28.7 13.9 13.6 70.8 17.1- 0.5--1018.3 993.9 0.0 0.0 0.0x- 12.9-------
2019-07-24 19.2 22.2 17.5 17.4 89.5 19.8- 1.0--1019.0 994.4 4.9 4.9 0.0x- 1.4-------
2019-07-23 17.7 22.0 15.9 16.2 89.1 17.9- 1.0--1020.2 995.5 2.6 2.5 0.1x- 0.4-------
2019-07-22 20.6 26.5 14.8 14.4 74.5 17.3- 0.8--1021.3 996.7 0.5 0.0 0.5x- 10.1-------
2019-07-21 21.2 30.3 17.4 16.2 76.1 18.4- 1.4--1018.0 993.6 32.9 32.7 0.2x- 5.7-------
2019-07-20 22.3 29.3 15.8 14.9 63.1 16.2- 1.1--1016.8 992.5 0.0 0.0 0.0x- 7.8-------
2019-07-19 20.0 29.0 9.9 9.5 58.8 12.5- 1.0--1015.1 990.7 0.0 0.0 0.0x- 9.8-------
2019-07-18 18.3 25.2 10.8 10.2 57.6 11.2- 0.9--1013.6 989.1 0.0 0.0 0.0x- 12.0-------
2019-07-17 17.5 22.0 11.6 11.0 60.9 11.8- 1.8--1012.1 987.6 0.0 0.0 0.0x- 7.3-------
2019-07-16 15.8 22.8 7.7 7.3 69.6 12.0- 1.6--1012.8 988.1 0.0 0.0 0.0x- 10.4-------
2019-07-15 16.5 23.4 9.6 8.6 63.9 11.1- 1.0--1013.3 988.7 0.0 0.0 0.0x- 13.0-------
2019-07-14 15.5 20.6 13.5 13.5 87.3 15.3- 0.9--1011.9 987.2 5.0 5.0 0.0x- 5.8-------
2019-07-13 17.2 23.5 12.9 12.1 75.3 14.4- 1.0--1009.9 985.4 9.6 0.5 9.1x- 2.3-------
2019-07-12 16.7 25.2 6.5 6.1 61.1 10.7- 0.8--1011.5 986.8 0.0 0.0 0.0x- 11.6-------
2019-07-11 14.3 19.6 10.8 10.1 76.6 12.2- 1.1--1012.6 987.7 4.0 4.0 0.0x- 6.7-------
2019-07-10 15.2 21.1 12.8 12.1 66.6 11.3- 1.8--1013.3 988.6 3.2 1.9 1.3x- 4.1-------
2019-07-09 15.0 21.2 8.0 6.8 56.1 9.3- 1.4--1014.0 989.2 0.4 0.3 0.1x- 7.2-------
2019-07-08 16.1 20.0 11.3 9.6 50.3 8.9- 1.9--1013.1 988.4 0.0 0.0 0.0x- 8.8-------
2019-07-07 20.0 26.5 16.5 14.5 60.8 13.9- 1.8--1006.7 982.5 0.1 0.1 0.0x- 9.3-------
2019-07-06 21.9 28.3 17.0 16.6 49.8 12.5- 1.3--1009.8 985.7 0.0 0.0 0.0x- 6.4-------
2019-07-05 18.2 23.7 9.0 8.0 52.5 10.2- 1.4--1014.1 989.6 0.0 0.0 0.0x- 6.3-------
2019-07-04 17.0 23.7 9.7 8.9 50.6 9.0- 1.0--1020.6 995.7 0.0 0.0 0.0x- 11.1-------
2019-07-03 17.4 23.9 11.2 10.2 53.4 9.8- 1.8--1019.3 994.5 0.0 0.0 0.0x- 13.3-------
93.3 ms

 

Źródłem pochodzenia danych jest Instytut Meteorologii i Gospodarki Wodnej – Państwowy Instytut Badawczy. Dane Instytutu Meteorologii i Gospodarki Wodnej – Państwowego Instytutu Badawczego zostały przetworzone.

Dane źródłowe można odnaleźć na stronie https://dane.imgw.pl